AOR-E (EGNOS/PRN 120) 1 24307U 96053A 08204.93641640 -.00000114 00000-0 10000-3 0 3991 2 24307 0.0765 335.8633 0004971 119.9848 166.8002 1.00272003 43485 IOR-W (EGNOS/PRN 126) 1 25153U 98006B 08204.12847324 .00000150 00000-0 10000-3 0 1244 2 25153 0.4500 345.9220 0003705 140.3858 245.2346 1.00276426 38360 ARTEMIS (EGNOS/PRN 124) 1 26863U 01029A 08205.00631543 .00000133 00000-0 10000-3 0 5126 2 26863 6.6317 73.7863 0002632 75.1359 175.8352 1.00271445 26842 MTSAT-1R (MSAS/PRN 129) 1 28622U 05006A 08204.26249928 -.00000272 00000-0 10000-3 0 7148 2 28622 0.0387 130.0570 0001097 200.7083 204.1792 1.00271232 12447 ANIK F1R (WAAS/PRN 138) 1 28868U 05036A 08204.36557610 -.00000066 00000-0 00000+0 0 5182 2 28868 0.0133 135.0199 0002113 322.4202 227.3431 1.00272158 10583 GALAXY 15 (WAAS/PRN 135) 1 28884U 05041A 08204.54004432 .00000087 00000-0 10000-3 0 4743 2 28884 0.0225 43.5550 0002870 74.8048 243.6977 1.00273723 10184 MTSAT-2 (MSAS/PRN 137) 1 28937U 06004A 08204.65123259 -.00000234 00000-0 10000-3 0 4423 2 28937 0.0489 255.5584 0002776 192.0491 232.5990 1.00270736 8929